458P/Jahn (2015)

Japanese version
Home page
Updated on April 22, 2023

---------------------------------------------------------------------

* Profile

Designation 458P/2016 C3

* Orbital Elements

                    Epoch = 2015 Apr.  8.0 TT
     T = 2015 Mar. 29.42896 TT        Peri. = 104.97186
     e = 0.3107893                    Node  =   1.86031 2000.0
     q = 2.6726243 AU                 Incl. =  13.58997
       a =  3.8778041 AU   n = 0.12906999   P =   7.64 years

---------------------------------------------------------------------

The orbital elements are printed on CBET 5237.
The magnitudes graphs are made with Comet for Windows.

---------------------------------------------------------------------

Copyright(C) Seiichi Yoshida (comet@aerith.net). All rights reserved.